GW1213 Weather Reports


time (UTC)temp
F
wind
direction
speed
knots
gust
knots
rain 1hr
in
rain 24hr
in
rain mn
in
humidity
%
barometer
mb
20260502190535 59 275 0.0 3.5 0.00 0.00 0.00 44 1011.7
20260502185533 59 306 0.9 3.5 0.00 0.00 0.00 43 1011.9
20260502185033 59 352 0.9 3.5 0.00 0.00 0.00 43 1012.0
20260502184556 59 0 0.0 2.6 0.00 0.00 0.00 44 1012.1
20260502184034 59 344 1.7 4.3 0.00 0.00 0.00 46 1012.2
20260502183535 59 349 1.7 4.3 0.00 0.00 0.00 45 1012.4
20260502183050 59 352 0.9 2.6 0.00 0.00 0.00 44 1012.4
20260502182534 59 278 0.0 3.5 0.00 0.00 0.00 46 1012.5
20260502182034 59 297 0.0 3.5 0.00 0.00 0.00 45 1012.5
20260502181546 58 344 0.9 3.5 0.00 0.00 0.00 45 1012.6
20260502181034 58 360 0.0 3.5 0.00 0.00 0.00 44 1012.7
20260502180534 58 275 0.9 3.5 0.00 0.00 0.00 44 1012.9
20260502180113 58 0 1.7 3.5 0.00 0.00 0.00 43 1012.9
20260502164034 58 315 1.7 3.5 0.00 0.00 0.00 45 1013.6
20260502163536 57 0 0.9 3.5 0.00 0.00 0.00 44 1013.6
20260502163053 58 313 1.7 5.2 0.00 0.00 0.00 47 1013.7
20260502162535 57 0 0.0 5.2 0.00 0.00 0.00 50 1013.8
20260502162035 57 0 0.0 4.3 0.00 0.00 0.00 49 1013.7
20260502161559 57 350 1.7 4.3 0.00 0.00 0.00 50 1013.7
20260502161039 57 49 0.0 3.5 0.00 0.00 0.00 48 1013.8
20260502160539 57 0 0.0 3.5 0.00 0.00 0.00 46 1013.9
20260502152042 55 50 0.0 2.6 0.00 0.00 0.00 53 1014.0
20260502151606 55 284 0.9 2.6 0.00 0.00 0.00 51 1014.1
20260502151039 55 0 0.0 2.6 0.00 0.00 0.00 51 1014.2
20260502150538 55 322 0.9 2.6 0.00 0.00 0.00 51 1014.3
20260502130539 50 327 0.9 4.3 0.00 0.00 0.00 64 1014.0
20260502123538 50 342 0.9 4.3 0.00 0.00 0.00 65 1013.8
20260502123045 50 5 0.9 4.3 0.00 0.00 0.00 65 1013.8
20260502122538 50 352 2.6 4.3 0.00 0.00 0.00 63 1013.9
20260502122038 50 302 0.9 4.3 0.00 0.00 0.00 65 1013.8
20260502121603 50 321 1.7 4.3 0.00 0.00 0.00 65 1013.8
20260502121042 50 5 0.9 4.3 0.00 0.00 0.00 66 1013.6
20260502120538 50 311 1.7 5.2 0.00 0.00 0.00 65 1013.5
20260502115542 50 315 0.9 5.2 0.00 0.00 0.00 66 1013.8
20260502115038 50 355 1.7 5.2 0.00 0.00 0.00 65 1013.7
20260502114549 50 342 0.9 4.3 0.00 0.00 0.00 67 1013.7
20260502114039 50 304 0.0 4.3 0.00 0.00 0.00 66 1013.6
20260502113538 50 340 0.9 3.5 0.00 0.00 0.00 67 1013.6
20260502113054 50 355 0.9 3.5 0.00 0.00 0.00 69 1013.7
20260502112538 50 5 0.0 3.5 0.00 0.00 0.00 69 1013.7
20260502112038 50 360 1.7 4.3 0.00 0.00 0.00 67 1013.6
20260502111556 50 302 0.9 4.3 0.00 0.00 0.00 70 1013.6
20260502111041 50 325 0.9 5.2 0.00 0.00 0.00 69 1013.6
20260502110538 50 327 1.7 5.2 0.00 0.00 0.00 68 1013.7
20260502110054 50 335 1.7 5.2 0.00 0.00 0.00 69 1013.6
20260502105540 50 346 0.9 3.5 0.00 0.00 0.00 71 1013.5
20260502105040 50 0 0.9 3.5 0.00 0.00 0.00 71 1013.5
20260502104554 50 333 0.9 2.6 0.00 0.00 0.00 71 1013.3
20260502104041 50 0 0.0 4.3 0.00 0.00 0.00 71 1013.2
20260502103538 50 0 0.9 4.3 0.00 0.00 0.00 73 1013.1
20260502103058 50 329 0.0 2.6 0.00 0.00 0.00 73 1013.2
20260502102538 50 335 0.0 2.6 0.00 0.00 0.00 73 1013.0
20260502102038 50 0 0.0 2.6 0.00 0.00 0.00 75 1013.0
20260502101606 50 0 0.0 2.6 0.00 0.00 0.00 73 1012.9
20260502101037 50 0 0.0 1.7 0.00 0.00 0.00 76 1012.8
20260502100537 49 0 0.0 1.7 0.00 0.00 0.00 77 1012.8
20260502100116 49 0 0.0 0.0 0.00 0.00 0.00 78 1012.8
20260502091034 49 0 0.0 0.9 0.00 0.00 0.00 83 1012.0
20260502090535 50 0 0.0 0.0 0.00 0.00 0.00 84 1012.1
20260502071034 51 0 0.0 0.0 0.00 0.00 0.00 84 1011.7
20260502070537 51 0 0.0 0.0 0.00 0.00 0.00 83 1011.7
20260502070048 52 0 0.0 0.9 0.00 0.00 0.00 84 1011.6
20260502065538 52 0 0.0 0.9 0.00 0.00 0.00 84 1011.6
20260502065038 52 0 0.0 0.0 0.00 0.00 0.00 83 1011.6
20260502064551 52 0 0.0 0.0 0.00 0.00 0.00 82 1011.7
20260502064038 53 0 0.0 0.0 0.00 0.00 0.00 82 1011.8
20260502063537 53 0 0.0 0.0 0.00 0.00 0.00 82 1011.8
20260502063057 53 0 0.0 0.0 0.00 0.00 0.00 81 1011.9
20260502062537 53 0 0.0 0.0 0.00 0.00 0.00 81 1011.9
20260502062038 53 0 0.0 0.0 0.00 0.00 0.00 80 1011.9
20260502061548 54 0 0.0 0.0 0.00 0.00 0.00 79 1011.9
20260502061038 54 0 0.0 0.0 0.00 0.00 0.00 79 1012.0
20260502060538 54 0 0.0 0.0 0.00 0.00 0.00 78 1012.1
20260502060111 54 0 0.0 0.0 0.00 0.00 0.00 78 1012.3
20260502055538 54 0 0.0 0.0 0.00 0.00 0.00 77 1012.3
20260502055038 54 0 0.0 0.0 0.00 0.00 0.00 77 1012.3
20260502054549 54 0 0.0 0.0 0.00 0.00 0.00 76 1012.3
20260502054037 54 0 0.0 0.0 0.00 0.00 0.00 75 1012.2
20260502053537 55 0 0.0 0.0 0.00 0.00 0.00 75 1012.2
20260502053100 55 0 0.0 0.9 0.00 0.00 0.00 74 1012.1
20260502052538 55 0 0.0 0.9 0.00 0.00 0.00 73 1012.2
20260502052038 55 0 0.0 0.9 0.00 0.00 0.00 73 1012.2
20260502051600 55 0 0.0 0.9 0.00 0.00 0.00 73 1012.1
20260502051036 55 0 0.0 0.0 0.00 0.00 0.00 72 1012.0
20260502050538 55 0 0.0 0.0 0.00 0.00 0.00 72 1012.0
20260502050058 54 0 0.0 0.0 0.00 0.00 0.00 72 1012.0
20260502045541 54 0 0.0 0.0 0.00 0.00 0.00 72 1012.0
20260502045038 54 0 0.0 0.0 0.00 0.00 0.00 71 1012.0
20260502044550 54 0 0.0 0.0 0.00 0.00 0.00 72 1012.0
20260502044039 54 0 0.0 0.0 0.00 0.00 0.00 72 1011.9
20260502043538 54 0 0.0 0.0 0.00 0.00 0.00 71 1011.9
20260502043105 54 0 0.0 0.9 0.00 0.00 0.00 68 1012.0
20260502042542 54 0 0.0 0.9 0.00 0.00 0.00 68 1012.0
20260502042038 54 0 0.0 0.0 0.00 0.00 0.00 68 1012.0
20260502041549 54 0 0.0 0.0 0.00 0.00 0.00 69 1012.0
20260502041037 53 0 0.0 0.0 0.00 0.00 0.00 68 1012.1
20260502040537 53 0 0.0 0.0 0.00 0.00 0.00 69 1012.0
20260502040054 53 0 0.0 0.0 0.00 0.00 0.00 70 1011.8
20260502035536 53 0 0.0 0.0 0.00 0.00 0.00 71 1011.6
20260502035037 53 0 0.0 0.0 0.00 0.00 0.00 71 1011.6
20260502034547 53 0 0.0 0.0 0.00 0.00 0.00 73 1011.5
20260502034037 53 0 0.0 0.0 0.00 0.00 0.00 74 1011.2
20260502033537 53 0 0.0 0.0 0.00 0.00 0.00 74 1011.1
20260502033053 53 0 0.0 0.0 0.00 0.00 0.00 73 1011.0
20260502032538 53 0 0.0 0.0 0.00 0.00 0.00 73 1011.0
20260502032038 53 0 0.0 0.0 0.00 0.00 0.00 73 1011.0
20260502031546 53 0 0.0 0.0 0.00 0.00 0.00 72 1011.0
20260502031039 53 0 0.0 0.0 0.00 0.00 0.00 72 1010.8
20260502030535 53 0 0.0 0.0 0.00 0.00 0.00 73 1010.9
20260502030053 53 0 0.0 0.0 0.00 0.00 0.00 73 1010.7
20260502025537 53 0 0.0 0.0 0.00 0.00 0.00 73 1010.6
20260502025038 53 0 0.0 0.0 0.00 0.00 0.00 70 1010.6
20260502024553 53 0 0.0 0.0 0.00 0.00 0.00 70 1010.5
20260502024039 54 0 0.0 0.0 0.00 0.00 0.00 71 1010.5
20260502023538 54 0 0.0 0.0 0.00 0.00 0.00 72 1010.5
20260502023057 54 0 0.0 0.0 0.00 0.00 0.00 70 1010.4
20260502022539 54 0 0.0 0.0 0.00 0.00 0.00 71 1010.4
20260502022038 54 0 0.0 0.0 0.00 0.00 0.00 71 1010.4
20260502021552 54 0 0.0 0.0 0.00 0.00 0.00 70 1010.6
20260502021038 55 0 0.0 0.0 0.00 0.00 0.00 71 1010.6
20260502020539 55 0 0.0 0.0 0.00 0.00 0.00 70 1010.6
20260502020050 55 0 0.0 0.0 0.00 0.00 0.00 70 1010.6
20260502015538 55 0 0.0 0.0 0.00 0.00 0.00 69 1010.6
20260502015038 55 0 0.0 0.0 0.00 0.00 0.00 69 1010.5
20260502014554 56 0 0.0 0.0 0.00 0.00 0.00 68 1010.5
20260502014036 56 0 0.0 1.7 0.00 0.00 0.00 69 1010.6
20260502013537 56 0 0.0 1.7 0.00 0.00 0.00 68 1010.4
20260502013057 56 70 0.0 0.9 0.00 0.00 0.00 67 1010.4
20260502012537 57 0 0.0 0.0 0.00 0.00 0.00 64 1010.4
20260502012039 57 0 0.0 0.0 0.00 0.00 0.00 64 1010.4
20260502011605 58 0 0.0 0.0 0.00 0.00 0.00 65 1010.3
20260502011038 58 0 0.0 0.0 0.00 0.00 0.00 64 1010.1
20260502010538 58 0 0.0 0.0 0.00 0.00 0.00 63 1010.1
20260502010055 59 0 0.0 0.0 0.00 0.00 0.00 62 1010.1
20260502005535 59 0 0.0 0.0 0.00 0.00 0.00 60 1009.9
20260502005038 60 0 0.0 0.0 0.00 0.00 0.00 57 1009.7
20260502004559 60 0 0.0 0.0 0.00 0.00 0.00 58 1009.4
20260502004037 61 0 0.0 0.0 0.00 0.00 0.00 58 1009.3
20260502003537 61 0 0.0 0.0 0.00 0.00 0.00 53 1009.3
20260502003048 62 0 0.0 0.0 0.00 0.00 0.00 55 1009.2
20260502002537 62 0 0.0 0.9 0.00 0.00 0.00 51 1009.3
20260502002042 63 0 0.0 0.9 0.00 0.00 0.00 49 1009.2
20260502001548 63 0 0.0 1.7 0.00 0.00 0.00 50 1009.2
20260502001038 64 70 0.0 1.7 0.00 0.00 0.00 44 1009.2
20260502000538 64 0 0.0 0.9 0.00 0.00 0.00 42 1009.1
20260502000106 64 0 0.0 1.7 0.00 0.00 0.00 41 1009.2
20260501235538 65 0 0.0 1.7 0.00 0.00 0.00 40 1009.3
20260501235041 65 117 0.0 1.7 0.00 0.00 0.00 38 1009.2
20260501234556 66 130 0.0 1.7 0.00 0.00 0.00 38 1009.2
20260501234038 66 0 0.0 4.3 0.00 0.00 0.00 38 1009.1
20260501233538 66 76 0.0 4.3 0.00 0.00 0.00 38 1009.1
20260501233053 66 137 0.0 3.5 0.00 0.00 0.00 38 1009.1
20260501232537 67 76 0.0 4.3 0.00 0.00 0.00 37 1009.1
20260501232038 67 78 0.9 7.0 0.00 0.00 0.00 36 1009.0
20260501231601 67 0 1.7 7.0 0.00 0.00 0.00 36 1009.0
20260501231038 67 134 1.7 6.1 0.00 0.00 0.00 36 1009.0
20260501230538 67 80 1.7 6.1 0.00 0.00 0.00 36 1009.1
20260501230048 67 0 0.9 9.6 0.00 0.00 0.00 36 1009.2
20260501225541 67 167 2.6 9.6 0.00 0.00 0.00 35 1009.1
20260501225040 67 143 1.7 6.1 0.00 0.00 0.00 35 1009.2
20260501224557 67 0 1.7 7.0 0.00 0.00 0.00 35 1009.2
20260501224038 67 188 2.6 7.0 0.00 0.00 0.00 34 1009.3
20260501223540 67 167 1.7 7.0 0.00 0.00 0.00 35 1009.4
20260501223057 67 128 1.7 6.1 0.00 0.00 0.00 34 1009.3
20260501222538 68 0 1.7 7.8 0.00 0.00 0.00 34 1009.3
20260501222038 68 0 2.6 7.8 0.00 0.00 0.00 33 1009.3
20260501221611 68 178 2.6 7.8 0.00 0.00 0.00 34 1009.4
20260501221040 68 189 0.9 7.0 0.00 0.00 0.00 32 1009.4
20260501220538 68 148 0.9 7.0 0.00 0.00 0.00 32 1009.6
20260501220055 68 156 1.7 7.8 0.00 0.00 0.00 31 1009.7
20260501215538 68 209 2.6 7.8 0.00 0.00 0.00 30 1009.6
20260501215038 68 161 1.7 8.7 0.00 0.00 0.00 31 1009.6
20260501214549 68 194 1.7 8.7 0.00 0.00 0.00 31 1009.8
20260501214109 68 223 0.9 7.8 0.00 0.00 0.00 30 1009.8
20260501213534 68 89 1.7 7.8 0.00 0.00 0.00 31 1009.8
20260501213049 68 199 1.7 8.7 0.00 0.00 0.00 31 1009.8
20260501212534 68 214 2.6 8.7 0.00 0.00 0.00 30 1009.9
20260501212034 68 192 2.6 7.0 0.00 0.00 0.00 30 1009.9
20260501211548 68 132 0.9 8.7 0.00 0.00 0.00 32 1009.9
20260501211034 68 165 2.6 8.7 0.00 0.00 0.00 33 1009.9
20260501210534 69 68 1.7 7.8 0.00 0.00 0.00 31 1010.0
20260501210047 69 34 1.7 7.8 0.00 0.00 0.00 32 1010.0
20260501205534 69 38 2.6 7.8 0.00 0.00 0.00 31 1010.1
20260501205035 69 180 2.6 7.0 0.00 0.00 0.00 30 1010.0
20260501204546 69 252 3.5 8.7 0.00 0.00 0.00 30 1009.9
20260501204035 69 157 1.7 15.6 0.00 0.00 0.00 32 1009.9
20260501203539 68 268 2.6 15.6 0.00 0.00 0.00 31 1009.9
20260501203051 69 74 4.3 10.4 0.00 0.00 0.00 34 1009.7
20260501202535 69 86 1.7 8.7 0.00 0.00 0.00 34 1010.1
20260501202035 69 215 2.6 11.3 0.00 0.00 0.00 32 1010.1
20260501201549 69 269 0.9 11.3 0.00 0.00 0.00 32 1010.3
20260501201038 69 236 2.6 10.4 0.00 0.00 0.00 30 1010.4
20260501200535 70 136 2.6 7.0 0.00 0.00 0.00 33 1010.5
20260501200049 69 254 1.7 7.8 0.00 0.00 0.00 31 1010.6
20260501195535 69 45 1.7 8.7 0.00 0.00 0.00 31 1010.6
20260501195035 69 140 2.6 8.7 0.00 0.00 0.00 31 1010.8
20260501194552 70 71 0.9 6.1 0.00 0.00 0.00 33 1010.9
20260501194034 70 248 2.6 8.7 0.00 0.00 0.00 31 1010.9
20260501193534 70 253 2.6 8.7 0.00 0.00 0.00 32 1011.1
20260501193047 69 246 1.7 8.7 0.00 0.00 0.00 33 1011.1
20260501192534 68 164 1.7 8.7 0.00 0.00 0.00 33 1011.1
20260501192035 69 78 3.5 8.7 0.00 0.00 0.00 33 1011.3
20260501191551 69 257 0.9 9.6 0.00 0.00 0.00 33 1011.4
20260501191034 69 182 3.5 9.6 0.00 0.00 0.00 32 1011.5